EPWA Airport Information

Runway Information
Runway 11 Length 9186 ft width 164 ft
Elevation 361 ft Threshold 0 ft Heading 115
Runway 29 Length 9186 ft Width 164 ft
Elevation 344 ft Threshold 1640 ft Heading 295
Runway 15 Length 12106 ft width 197 ft
Elevation 351 ft Threshold 0 ft Heading 152
Runway 33 Length 12106 ft Width 197 ft
Elevation 351 ft Threshold 0 ft Heading 332
Airport Frequencies
Type APP Name WARSZAWA A Frequency 128.8 MHZ
Type ATIS Name ATIS Frequency 120.45 MHZ
Type CLD Name CLNC DEL Frequency 121.6 MHZ
Type DIR Name WARSZAWA D Frequency 129.375 MHZ
Type GND Name GND Frequency 121.9 MHZ
Type TWR Name TWR Frequency 118.3 MHZ
Airport Navaids
Type VOR-DME Name Okecie Frequency 113400 KHZ
Type NDB Name Piaseczno Frequency 330 KHZ
Type NDB Name Warszawa Frequency 336 KHZ
Type NDB Name Warszawa Frequency 412 KHZ
Type VOR-DME Name Zaborowek Frequency 114900 KHZ
Airport Weather Information & NOTAM
ADDS - METARS form results

(0618 UTC 19 August 2018)
 
METAR text: EPWA 190600Z 00000KT CAVOK 21/17 Q1020 NOSIG
Conditions at: EPWA (WARSAW/OKECIE , PL) observed 0600 UTC 19 August 2018
Temperature: 21.0°C (70°F)
Dewpoint: 17.0°C (63°F) [RH = 78%]
Pressure (altimeter): 30.12 inches Hg (1020.0 mb)
Winds: calm
Visibility: 6 or more miles (10+ km)
Ceiling: ceiling and visibility are OK
Clouds: unknown
Weather: no significant weather observed at this time

METAR text: EPWA 190530Z 00000KT CAVOK 20/16 Q1020 NOSIG
Conditions at: EPWA (WARSAW/OKECIE , PL) observed 0530 UTC 19 August 2018
Temperature: 20.0°C (68°F)
Dewpoint: 16.0°C (61°F) [RH = 78%]
Pressure (altimeter): 30.12 inches Hg (1020.0 mb)
Winds: calm
Visibility: 6 or more miles (10+ km)
Ceiling: ceiling and visibility are OK
Clouds: unknown
Weather: no significant weather observed at this time